Tracking 28790 objects as of 19-Apr-2024
HD Live streaming from Space Station
objects crossing your sky now

FENGYUN 1C DEB

Track FENGYUN 1C DEB now!
10-day predictions


NORAD ID: 37081
Int'l Code: 1999-025EFR
Perigee: 701.3 km
Apogee: 1,211.2 km
Inclination: 98.7 °
Period: 104.0 minutes
Semi major axis: 7327 km
RCS: 0.0002 m2 (small)
Launch date: May 10, 1999
Source: People's Republic of China (PRC)
Launch site: Taiyaun Space Center, China (TSC)

Note: This is SATELLITE DEBRIS
Your satellite tracking list
Your tracking list is empty




NASA's NSSDC Master Catalog

Two Line Element Set (TLE):
1 37081U 99025EFR 24101.21335149  .00011221  00000-0  63072-2 0  9997
2 37081  98.7196 274.3321 0347950 255.9535 100.2717 13.84187935500142
Source of the keplerian elements: AFSPC